Time,TemperatureF,DewpointF,PressureIn,WindDirection,WindDirectionDegrees,WindSpeedMPH,WindSpeedGustMPH,Humidity,HourlyPrecipIn,Conditions,Clouds,dailyrainin,SolarRadiationWatts/m^2,SoftwareType,DateUTC
2013-07-29 00:00:00,72.0,47.0,-100.00,South,185,2.0,4.0,40,-99.99,,,0.00,0.000000,,2013-07-29 07:00:00,
2013-07-29 00:43:00,72.0,47.0,-100.00,South,185,2.0,4.0,40,-99.99,,,0.00,0.000000,,2013-07-29 07:43:00,
2013-07-29 00:53:00,72.0,47.0,-100.00,South,185,2.0,4.0,40,-99.99,,,0.00,0.000000,,2013-07-29 07:53:00,
2013-07-29 01:00:00,69.0,45.0,-100.00,NNW,348,2.0,4.0,42,-99.99,,,0.00,0.000000,,2013-07-29 08:00:00,
2013-07-29 01:42:00,69.0,45.0,-100.00,NNW,348,2.0,4.0,42,-99.99,,,0.00,0.000000,,2013-07-29 08:42:00,
2013-07-29 01:52:00,69.0,45.0,-100.00,NNW,348,2.0,4.0,42,-99.99,,,0.00,0.000000,,2013-07-29 08:52:00,
2013-07-29 02:00:00,68.0,48.0,-100.00,South,191,4.0,5.0,47,-99.99,,,0.00,0.000000,,2013-07-29 09:00:00,
2013-07-29 02:43:00,68.0,48.0,-100.00,South,191,4.0,5.0,47,-99.99,,,0.00,0.000000,,2013-07-29 09:43:00,
2013-07-29 02:53:00,68.0,48.0,-100.00,South,191,4.0,5.0,47,-99.99,,,0.00,0.000000,,2013-07-29 09:53:00,
2013-07-29 03:00:00,69.0,46.0,-100.00,South,177,4.0,6.0,44,-99.99,,,0.00,0.000000,,2013-07-29 10:00:00,
2013-07-29 03:55:00,69.0,46.0,-100.00,South,177,4.0,6.0,44,-99.99,,,0.00,0.000000,,2013-07-29 10:55:00,
2013-07-29 04:00:00,68.0,46.0,-100.00,SSE,159,3.0,5.0,45,-99.99,,,0.00,0.000000,,2013-07-29 11:00:00,
2013-07-29 04:44:00,68.0,46.0,-100.00,SSE,159,3.0,5.0,45,-99.99,,,0.00,0.000000,,2013-07-29 11:44:00,
2013-07-29 04:58:00,68.0,46.0,-100.00,SSE,159,3.0,5.0,45,-99.99,,,0.00,0.000000,,2013-07-29 11:58:00,
2013-07-29 05:00:00,62.0,49.0,-100.00,West,271,1.0,3.0,61,-99.99,,,0.00,0.000000,,2013-07-29 12:00:00,
2013-07-29 05:57:00,62.0,49.0,-100.00,West,271,1.0,3.0,61,-99.99,,,0.00,0.000000,,2013-07-29 12:57:00,
2013-07-29 06:00:00,62.0,49.0,-100.00,North,354,0.0,1.0,61,-99.99,,,0.00,3.490000,,2013-07-29 13:00:00,
2013-07-29 06:57:00,62.0,49.0,-100.00,North,354,0.0,1.0,61,-99.99,,,0.00,3.490000,,2013-07-29 13:57:00,
2013-07-29 08:00:00,71.0,50.0,-100.00,SSE,164,3.0,5.0,47,-99.99,,,0.00,321.350006,,2013-07-29 15:00:00,
2013-07-29 08:44:00,71.0,50.0,-100.00,SSE,164,3.0,5.0,47,-99.99,,,0.00,321.350006,,2013-07-29 15:44:00,
2013-07-29 08:55:00,71.0,50.0,-100.00,SSE,164,3.0,5.0,47,-99.99,,,0.00,321.350006,,2013-07-29 15:55:00,
2013-07-29 09:44:00,77.0,49.0,-100.00,South,176,6.0,8.0,37,-99.99,,,0.00,512.880005,,2013-07-29 16:44:00,
2013-07-29 09:57:00,77.0,49.0,-100.00,South,176,6.0,8.0,37,-99.99,,,0.00,512.880005,,2013-07-29 16:57:00,
2013-07-29 10:00:00,82.0,45.0,-100.00,South,189,4.0,9.0,26,-99.99,,,0.00,694.880005,,2013-07-29 17:00:00,
2013-07-29 10:43:00,82.0,45.0,-100.00,South,189,4.0,9.0,26,-99.99,,,0.00,694.880005,,2013-07-29 17:43:00,
2013-07-29 10:58:00,82.0,45.0,-100.00,South,189,4.0,9.0,26,-99.99,,,0.00,694.880005,,2013-07-29 17:58:00,
2013-07-29 11:00:00,85.0,42.0,-100.00,SSW,193,3.0,7.0,22,-99.99,,,0.00,857.119995,,2013-07-29 18:00:00,
2013-07-29 11:43:00,85.0,42.0,-100.00,SSW,193,3.0,7.0,22,-99.99,,,0.00,857.119995,,2013-07-29 18:43:00,
2013-07-29 11:57:00,85.0,42.0,-100.00,SSW,193,3.0,7.0,22,-99.99,,,0.00,857.119995,,2013-07-29 18:57:00,
2013-07-29 12:00:00,86.0,39.0,-100.00,WSW,258,3.0,10.0,18,-99.99,,,0.00,953.000000,,2013-07-29 19:00:00,
2013-07-29 12:44:00,86.0,39.0,-100.00,WSW,258,3.0,10.0,18,-99.99,,,0.00,953.000000,,2013-07-29 19:44:00,
2013-07-29 12:57:00,86.0,39.0,-100.00,WSW,258,3.0,10.0,18,-99.99,,,0.00,953.000000,,2013-07-29 19:57:00,
2013-07-29 13:00:00,89.0,29.0,-100.00,SSW,197,8.0,14.0,11,-99.99,,,0.00,1000.650024,,2013-07-29 20:00:00,
2013-07-29 13:46:00,89.0,29.0,-100.00,SSW,197,8.0,14.0,11,-99.99,,,0.00,1000.650024,,2013-07-29 20:46:00,
2013-07-29 13:58:00,89.0,29.0,-100.00,SSW,197,8.0,14.0,11,-99.99,,,0.00,1000.650024,,2013-07-29 20:58:00,
2013-07-29 14:00:00,92.0,27.0,-100.00,SSW,203,6.0,15.0,9,-99.99,,,0.00,977.409973,,2013-07-29 21:00:00,
2013-07-29 14:45:00,92.0,27.0,-100.00,SSW,203,6.0,15.0,9,-99.99,,,0.00,977.409973,,2013-07-29 21:45:00,
2013-07-29 14:59:00,92.0,27.0,-100.00,SSW,203,6.0,15.0,9,-99.99,,,0.00,977.409973,,2013-07-29 21:59:00,
2013-07-29 15:00:00,91.0,28.0,-100.00,NW,325,3.0,7.0,10,-99.99,,,0.00,884.900024,,2013-07-29 22:00:00,
2013-07-29 15:43:00,91.0,28.0,-100.00,NW,325,3.0,7.0,10,-99.99,,,0.00,884.900024,,2013-07-29 22:43:00,
2013-07-29 15:55:00,91.0,28.0,-100.00,NW,325,3.0,7.0,10,-99.99,,,0.00,884.900024,,2013-07-29 22:55:00,
2013-07-29 16:00:00,92.0,30.0,-100.00,NW,310,5.0,12.0,11,-99.99,,,0.00,789.710022,,2013-07-29 23:00:00,
2013-07-29 16:44:00,92.0,30.0,-100.00,NW,310,5.0,12.0,11,-99.99,,,0.00,789.710022,,2013-07-29 23:44:00,
2013-07-29 17:45:00,91.0,31.0,-100.00,WSW,258,9.0,17.0,11,-99.99,,,0.00,354.239990,,2013-07-30 00:45:00,
2013-07-29 17:55:00,91.0,31.0,-100.00,WSW,258,9.0,17.0,11,-99.99,,,0.00,354.239990,,2013-07-30 00:55:00,
2013-07-29 18:00:00,91.0,37.0,-100.00,West,266,13.0,22.0,15,-99.99,,,0.00,452.209991,,2013-07-30 01:00:00,
2013-07-29 18:44:00,91.0,37.0,-100.00,West,266,13.0,22.0,15,-99.99,,,0.00,452.209991,,2013-07-30 01:44:00,
2013-07-29 19:00:00,87.0,33.0,-100.00,West,278,12.0,17.0,14,-99.99,,,0.00,201.059998,,2013-07-30 02:00:00,
2013-07-29 19:45:00,87.0,33.0,-100.00,West,278,12.0,17.0,14,-99.99,,,0.00,201.059998,,2013-07-30 02:45:00,
2013-07-29 19:55:00,87.0,33.0,-100.00,West,278,12.0,17.0,14,-99.99,,,0.00,201.059998,,2013-07-30 02:55:00,
2013-07-29 20:00:00,83.0,34.0,-100.00,West,278,10.0,16.0,17,-99.99,,,0.00,23.480000,,2013-07-30 03:00:00,
2013-07-29 20:43:00,83.0,34.0,-100.00,West,278,10.0,16.0,17,-99.99,,,0.00,23.480000,,2013-07-30 03:43:00,
2013-07-29 21:00:00,80.0,32.0,-100.00,WNW,284,11.0,18.0,17,-99.99,,,0.00,0.000000,,2013-07-30 04:00:00,
2013-07-29 21:43:00,80.0,32.0,-100.00,WNW,284,11.0,18.0,17,-99.99,,,0.00,0.000000,,2013-07-30 04:43:00,
2013-07-29 21:53:00,80.0,32.0,-100.00,WNW,284,11.0,18.0,17,-99.99,,,0.00,0.000000,,2013-07-30 04:53:00,
2013-07-29 22:00:00,77.0,27.0,-100.00,WNW,299,7.0,13.0,15,-99.99,,,0.00,0.000000,,2013-07-30 05:00:00,
2013-07-29 22:45:00,77.0,27.0,-100.00,WNW,299,7.0,13.0,15,-99.99,,,0.00,0.000000,,2013-07-30 05:45:00,
2013-07-29 22:52:00,77.0,27.0,-100.00,WNW,299,7.0,13.0,15,-99.99,,,0.00,0.000000,,2013-07-30 05:52:00,
2013-07-29 23:00:00,76.0,27.0,-100.00,NW,313,6.0,10.0,16,-99.99,,,0.00,0.000000,,2013-07-30 06:00:00,
2013-07-29 23:43:00,76.0,27.0,-100.00,NW,313,6.0,10.0,16,-99.99,,,0.00,0.000000,,2013-07-30 06:43:00,
2013-07-29 23:53:00,76.0,27.0,-100.00,NW,313,6.0,10.0,16,-99.99,,,0.00,0.000000,,2013-07-30 06:53:00,